When you browse on this site, cookies collect data to enhance your experience and personalize the content and advertising you see.
Visit our Privacy Policy to learn more. By continuing to use the site, you agree to this use of cookies and data.
  • In France
  • List of Countries
  • For 7 days
  • Water Temperature
  • Satellite Maps
  • Weather Map
  • Weather Widgets
  • user-avatar
    Login

    Hourly Weather Konstantyna

    Today, 23 January, Wednesday

    Time Temperature Precipitation Wind Pressure Humidity
    00:00 +2°C° 0 mm 3 mps 702 mmHg 79%
    01:00 +2°C° 0 mm 3 mps 701 mmHg 79%
    02:00 +1°C° 0 mm 3 mps 701 mmHg 78%
    03:00 +2°C° 0 mm 2 mps 700 mmHg 78%
    04:00 +2°C° 0 mm 2 mps 700 mmHg 79%
    05:00 +2°C° 0 mm 2 mps 700 mmHg 80%
    06:00 +2°C° 0 mm 2 mps 699 mmHg 81%
    07:00 +2°C° 0 mm 3 mps 699 mmHg 77%
    08:00 +4°C° 0 mm 4 mps 699 mmHg 74%
    09:00 +5°C° 0 mm 4 mps 699 mmHg 71%
    10:00 +6°C° 0 mm 5 mps 699 mmHg 68%
    11:00 +7°C° 0 mm 5 mps 699 mmHg 64%
    12:00 +7°C° 0 mm 6 mps 698 mmHg 61%
    13:00 +7°C° 0 mm 6 mps 698 mmHg 61%
    14:00 +7°C° 0 mm 5 mps 697 mmHg 62%
    15:00 +7°C° 0 mm 5 mps 697 mmHg 63%
    16:00 +7°C° 1 mm 5 mps 696 mmHg 69%
    17:00 +5°C° 1 mm 6 mps 695 mmHg 74%
    18:00 +4°C° 1 mm 6 mps 694 mmHg 80%
    19:00 +4°C° 1.2 mm 6 mps 694 mmHg 83%
    20:00 +5°C° 1.2 mm 6 mps 694 mmHg 87%
    21:00 +5°C° 1.2 mm 6 mps 694 mmHg 90%
    22:00 +4°C° 2.3 mm 6 mps 694 mmHg 89%
    23:00 +4°C° 2.3 mm 7 mps 693 mmHg 89%

    Tomorrow, 24 January, Thursday

    Time Temperature Precipitation Wind Pressure Humidity
    00:00 +4°C° 2.3 mm 7 mps 693 mmHg 89%
    01:00 +3°C° 2.8 mm 6 mps 693 mmHg 91%
    02:00 +2°C° 2.8 mm 6 mps 693 mmHg 93%
    03:00 +2°C° 2.8 mm 5 mps 693 mmHg 95%
    04:00 +1°C° 2.1 mm 5 mps 693 mmHg 95%
    05:00 0°C° 2.1 mm 5 mps 693 mmHg 94%
    06:00 -1°C° 2.1 mm 6 mps 693 mmHg 94%
    07:00 -1°C° 0.8 mm 6 mps 693 mmHg 92%
    08:00 -1°C° 0.8 mm 7 mps 694 mmHg 89%
    09:00 -1°C° 0.8 mm 8 mps 694 mmHg 87%
    10:00 -1°C° 0.2 mm 9 mps 694 mmHg 87%
    11:00 -1°C° 0.2 mm 11 mps 695 mmHg 87%
    12:00 -1°C° 0.2 mm 12 mps 695 mmHg 87%
    13:00 -1°C° 0.5 mm 12 mps 695 mmHg 89%
    14:00 -1°C° 0.5 mm 12 mps 695 mmHg 91%
    15:00 -1°C° 0.5 mm 12 mps 695 mmHg 92%
    16:00 -1°C° 0.2 mm 11 mps 696 mmHg 92%
    17:00 0°C° 0.2 mm 10 mps 697 mmHg 92%
    18:00 0°C° 0.2 mm 10 mps 697 mmHg 92%
    19:00 0°C° 0.3 mm 10 mps 698 mmHg 92%
    20:00 0°C° 0.3 mm 10 mps 698 mmHg 92%
    21:00 0°C° 0.3 mm 10 mps 699 mmHg 92%
    22:00 0°C° 0.2 mm 9 mps 699 mmHg 92%
    23:00 0°C° 0.2 mm 9 mps 699 mmHg 92%

    Day after tomorrow, 25 January, Friday

    Time Temperature Precipitation Wind Pressure Humidity
    00:00 0°C° 0.2 mm 8 mps 700 mmHg 92%
    01:00 0°C° 0.3 mm 8 mps 700 mmHg 91%
    02:00 0°C° 0.3 mm 8 mps 700 mmHg 90%
    03:00 0°C° 0.3 mm 8 mps 701 mmHg 90%
    04:00 0°C° 0.1 mm 8 mps 701 mmHg 89%
    05:00 -1°C° 0.1 mm 8 mps 701 mmHg 89%
    06:00 -1°C° 0.1 mm 8 mps 702 mmHg 88%
    07:00 0°C° 0.1 mm 9 mps 702 mmHg 87%
    08:00 0°C° 0.1 mm 10 mps 703 mmHg 85%
    09:00 0°C° 0.1 mm 10 mps 703 mmHg 83%
    10:00 +1°C° 0.2 mm 11 mps 703 mmHg 80%
    11:00 +1°C° 0.2 mm 11 mps 703 mmHg 77%
    12:00 +2°C° 0.2 mm 12 mps 703 mmHg 74%
    13:00 +2°C° 0.2 mm 11 mps 703 mmHg 76%
    14:00 +2°C° 0.2 mm 10 mps 703 mmHg 79%
    15:00 +2°C° 0.2 mm 9 mps 702 mmHg 81%
    16:00 +2°C° 0.4 mm 7 mps 703 mmHg 85%
    17:00 +2°C° 0.4 mm 6 mps 703 mmHg 88%
    18:00 +2°C° 0.4 mm 5 mps 703 mmHg 92%
    19:00 +3°C° 1.2 mm 4 mps 703 mmHg 92%
    20:00 +3°C° 1.2 mm 4 mps 703 mmHg 93%
    21:00 +3°C° 1.2 mm 4 mps 703 mmHg 94%
    22:00 +2°C° 1.7 mm 5 mps 703 mmHg 93%
    23:00 +3°C° 1.7 mm 6 mps 703 mmHg 93%

    26 January, Saturday

    Time Temperature Precipitation Wind Pressure Humidity
    00:00 +3°C° 1.7 mm 7 mps 703 mmHg 92%
    01:00 +3°C° 0.8 mm 6 mps 703 mmHg 92%
    02:00 +2°C° 0.8 mm 6 mps 703 mmHg 92%
    03:00 +2°C° 0.8 mm 6 mps 703 mmHg 92%
    04:00 +1°C° 0.2 mm 6 mps 704 mmHg 91%
    05:00 0°C° 0.2 mm 7 mps 704 mmHg 90%
    06:00 0°C° 0.2 mm 7 mps 705 mmHg 88%
    07:00 0°C° 0.1 mm 7 mps 706 mmHg 87%
    08:00 +2°C° 0.1 mm 7 mps 706 mmHg 86%
    09:00 +3°C° 0.1 mm 7 mps 707 mmHg 85%
    10:00 +3°C° 0.1 mm 7 mps 708 mmHg 83%
    11:00 +4°C° 0.1 mm 7 mps 708 mmHg 82%
    12:00 +4°C° 0.1 mm 7 mps 709 mmHg 81%
    13:00 +4°C° 0 mm 7 mps 708 mmHg 79%
    14:00 +4°C° 0 mm 7 mps 708 mmHg 78%
    15:00 +4°C° 0 mm 7 mps 708 mmHg 76%
    16:00 +5°C° 0 mm 5 mps 708 mmHg 79%
    17:00 +4°C° 0 mm 4 mps 708 mmHg 82%
    18:00 +5°C° 0 mm 2 mps 708 mmHg 85%
    19:00 +5°C° 0 mm 2 mps 708 mmHg 86%
    20:00 +5°C° 0 mm 2 mps 709 mmHg 87%
    21:00 +4°C° 0 mm 3 mps 709 mmHg 88%
    22:00 +3°C° 0 mm 3 mps 708 mmHg 88%
    23:00 +3°C° 0 mm 3 mps 708 mmHg 89%

    27 January, Sunday

    Time Temperature Precipitation Wind Pressure Humidity
    00:00 +2°C° 0 mm 3 mps 708 mmHg 89%
    01:00 +2°C° 0 mm 3 mps 707 mmHg 88%
    02:00 +2°C° 0 mm 3 mps 707 mmHg 87%
    03:00 +3°C° 0 mm 2 mps 707 mmHg 86%
    04:00 +3°C° 0 mm 2 mps 707 mmHg 85%
    05:00 +2°C° 0 mm 3 mps 706 mmHg 84%
    06:00 +2°C° 0 mm 3 mps 706 mmHg 83%
    07:00 +3°C° 0 mm 3 mps 706 mmHg 78%
    08:00 +5°C° 0 mm 3 mps 706 mmHg 72%
    09:00 +8°C° 0 mm 3 mps 706 mmHg 67%
    10:00 +8°C° 0 mm 4 mps 706 mmHg 63%
    11:00 +10°C° 0 mm 4 mps 706 mmHg 60%
    12:00 +12°C° 0 mm 4 mps 705 mmHg 56%
    13:00 +12°C° 0 mm 5 mps 705 mmHg 57%
    14:00 +12°C° 0 mm 5 mps 704 mmHg 57%
    15:00 +12°C° 0 mm 5 mps 703 mmHg 57%
    16:00 +10°C° 0 mm 4 mps 703 mmHg 66%
    17:00 +8°C° 0 mm 3 mps 703 mmHg 75%
    18:00 +8°C° 0 mm 1 mps 703 mmHg 83%
    19:00 +7°C° 0 mm 2 mps 703 mmHg 83%
    20:00 +7°C° 0 mm 2 mps 703 mmHg 84%
    21:00 +7°C° 0 mm 2 mps 703 mmHg 84%
    22:00 +7°C° 0.4 mm 2 mps 703 mmHg 87%
    23:00 +7°C° 0.4 mm 2 mps 703 mmHg 90%

    28 January, Monday

    Time Temperature Precipitation Wind Pressure Humidity
    00:00 +7°C° 0.4 mm 2 mps 703 mmHg 93%
    01:00 +6°C° 1.1 mm 2 mps 702 mmHg 94%
    02:00 +5°C° 1.1 mm 3 mps 702 mmHg 95%
    03:00 +4°C° 1.1 mm 3 mps 701 mmHg 97%
    04:00 +3°C° 1.1 mm 3 mps 701 mmHg 95%
    05:00 +3°C° 1.1 mm 3 mps 701 mmHg 93%
    06:00 +2°C° 1.1 mm 3 mps 701 mmHg 92%
    07:00 +1°C° 0.2 mm 4 mps 701 mmHg 89%
    08:00 +3°C° 0.2 mm 4 mps 702 mmHg 87%
    09:00 +3°C° 0.2 mm 4 mps 702 mmHg 84%
    10:00 +3°C° 0.2 mm 4 mps 702 mmHg 81%
    11:00 +3°C° 0.2 mm 3 mps 702 mmHg 78%
    12:00 +4°C° 0.2 mm 3 mps 702 mmHg 74%
    13:00 +3°C° 0.7 mm 4 mps 702 mmHg 78%
    14:00 +2°C° 0.7 mm 5 mps 702 mmHg 81%
    15:00 +1°C° 0.7 mm 6 mps 702 mmHg 84%
    16:00 +1°C° 0.1 mm 4 mps 702 mmHg 86%
    17:00 +1°C° 0.1 mm 3 mps 702 mmHg 87%
    18:00 +1°C° 0.1 mm 2 mps 702 mmHg 89%
    19:00 +1°C° 0.4 mm 2 mps 703 mmHg 90%
    20:00 +1°C° 0.4 mm 2 mps 703 mmHg 91%
    21:00 +2°C° 0.4 mm 2 mps 703 mmHg 92%
    22:00 +1°C° 0.6 mm 2 mps 703 mmHg 92%
    23:00 0°C° 0.6 mm 3 mps 702 mmHg 91%
    Show more